Terminal Aerodrome Forecast
Issued by NWS

Home | Current Version | Previous Version | Text Only | Print | Product List | Glossary On
Versions: 1 2 3 4 5 6 7 8 9 10 11 12 13 14 15 16 17 18 19 20 21 22 23 24 25 26 27 28 29
000
FTUS44 KMOB 230500 RRA
TAFBFM
TAF
KBFM 230543Z 2306/2406 VRB03KT P6SM FEW100
     FM231500 13006KT P6SM SCT030 SCT250 PROB30 2315/2318 P6SM TS
      BKN030CB=

USA.gov is the U.S. government's official web portal to all federal, state and local government web resources and services.